Station FAIO1 - 9063053 - Fairport, OH Image indicating link to RSS feed of recent meteorological observations for station FAIO1


Conditions at FAIO1 as of
(6:48 pm EDT)
2248 GMT on 06/21/2024:
     

Click on the graph icon in the table below to see a time series plot of the last five days of that observation.

5-day plot - Atmospheric Pressure Atmospheric Pressure (PRES):30.05 in
5-day plot - Air Temperature Air Temperature (ATMP): 79.0 °F
5-day plot - Water Temperature Water Temperature (WTMP): 72.3 °F
5-day plot - Dew Point Dew Point (DEWP): 73.2 °F
5-day plot - Heat Index Heat Index (HEAT): 82.4 °F
NOS Water Level Observation Network Water Level
Previous observations
TIME
(EDT)
5-day plot - Wind Direction
WDIR
 
5-day plot - Wind Speed
WSPD
kts
5-day plot - Wind Gust
GST
kts
5-day plot - Wave Height
WVHT
ft
5-day plot - Dominant Wave Period
DPD
sec
5-day plot - Average Wave Period
APD
sec
5-day plot - Mean Wave Direction
MWD
 
5-day plot - Atmospheric Pressure
PRES
in
5-day plot - Pressure Tendency
PTDY
in
5-day plot - Air Temperature
ATMP
°F
5-day plot - Water Temperature
WTMP
°F
5-day plot - Dew Point
DEWP
°F
5-day plot - Salinity
SAL
psu
5-day plot - Visibility
VIS
nmi
5-day plot - Tide (above MLLW)
TIDE
ft
2024-06-21 06:42 pm-------30.05- 79.0 74.3 72.5---
2024-06-21 06:36 pm-------30.05- 79.0 73.6 72.7---
2024-06-21 06:30 pmENE 2.9 4.1----30.05- 79.0 72.0 72.7---
2024-06-21 06:24 pm NE 2.9 4.1----30.05- 79.2 72.3 72.7---
2024-06-21 06:18 pm NE 2.9 4.1----30.05- 79.0 72.0 73.4---
2024-06-21 06:12 pmNNE 2.9 2.9----30.05- 78.8 72.5 72.3---
2024-06-21 06:06 pmNNE 1.0 2.9----30.05- 78.8 72.5 72.3---
2024-06-21 06:00 pm N 2.9 4.1----30.06-0.06 78.8 72.1 72.1---
2024-06-21 05:54 pm N 2.9 2.9----30.06- 79.3 72.0 72.3---
2024-06-21 05:48 pmNNW 2.9 4.1----30.06- 79.7 71.2 71.6---
2024-06-21 05:42 pmNNW 2.9 2.9----30.06- 79.7 71.4 71.6---
2024-06-21 05:36 pmNNW 1.9 2.9----30.06- 79.5 71.6 71.6---
2024-06-21 05:30 pmNNW 2.9 2.9----30.07- 79.7 71.2 71.2---
2024-06-21 05:24 pmNNW 1.9 2.9----30.07- 79.9 71.2 71.6---
2024-06-21 05:18 pm NW 2.9 2.9----30.08- 80.2 71.2 70.9---
2024-06-21 05:12 pmNNW 2.9 4.1----30.08- 80.8 70.7 71.6---
2024-06-21 05:06 pmNNW 4.1 4.1----30.08- 80.4 71.2 71.2---
2024-06-21 05:00 pmNNW 5.1 5.1----30.09-0.06 80.8 72.1 71.2---
2024-06-21 04:54 pmNNW 4.1 5.1----30.09- 80.2 71.2 70.3---
2024-06-21 04:48 pmNNW 4.1 4.1----30.09- 79.0 71.1 72.1---
2024-06-21 04:42 pm N 2.9 4.1----30.09- 78.4 72.7 70.9---
2024-06-21 04:36 pm N 1.9 2.9----30.09- 78.6 73.0 72.1---
2024-06-21 04:30 pm- 0.0 0.0----30.10- 79.2 71.6 72.7---
2024-06-21 04:24 pm- 0.0 0.0----30.10- 79.5 73.9 72.5---
2024-06-21 04:18 pm- 0.0 1.0----30.10- 79.0 72.3 71.1---
2024-06-21 04:12 pmWNW 1.0 1.9----30.11- 78.8 71.1 72.0---
2024-06-21 04:06 pm NW 1.9 2.9----30.11- 79.0 71.8 72.0---
2024-06-21 04:00 pmNNW 2.9 4.1----30.11-0.05 79.2 71.8 71.2---
2024-06-21 03:54 pmNNW 4.1 4.1----30.11- 79.5 73.4 72.3---
2024-06-21 03:48 pmNNW 2.9 4.1----30.11- 79.2 72.7 71.8---
2024-06-21 03:42 pm NW 4.1 4.1----30.11- 79.5 73.6 72.9---
2024-06-21 03:36 pm NW 2.9 2.9----30.11- 79.9 72.5 73.4---
2024-06-21 03:30 pm NW 2.9 2.9----30.11- 79.3 71.8 73.6---
2024-06-21 03:24 pmWNW 2.9 4.1----30.11- 79.3 71.2 73.4---
2024-06-21 03:18 pm NW 4.1 4.1----30.11- 79.2 71.2 73.6---
2024-06-21 03:12 pm NW 4.1 5.1----30.11- 79.3 72.0 73.6---
2024-06-21 03:06 pm NW 4.1 5.1----30.11- 79.5 71.6 73.8---
2024-06-21 03:00 pm NW 4.1 5.1----30.12-0.05 79.5 71.8 74.3---
2024-06-21 02:54 pm NW 4.1 5.1----30.12- 78.8 71.8 74.5---
2024-06-21 02:48 pm NW 5.1 5.1----30.12- 79.2 71.8 74.3---
2024-06-21 02:42 pmWNW 5.1 5.1----30.12- 78.4 72.1 74.1---
2024-06-21 02:36 pm NW 5.1 5.1----30.13- 79.0 71.8 74.8---
2024-06-21 02:30 pm NW 5.1 6.0----30.13- 79.3 72.1 74.8---
2024-06-21 02:24 pmWNW 6.0 7.0----30.13- 79.0 71.4 74.8---
2024-06-21 02:18 pmWNW 5.1 6.0----30.13- 79.3 71.4 75.6---
2024-06-21 02:12 pmWNW 5.1 5.1----30.14- 78.4 72.7 74.7---
2024-06-21 02:06 pmWNW 5.1 5.1----30.14- 78.3 72.0 74.3---
2024-06-21 02:00 pmWNW 4.1 5.1----30.14-0.02 78.3 72.1 73.9---
2024-06-21 01:54 pmWNW 5.1 6.0----30.14- 78.4 71.6 74.3---
2024-06-21 01:48 pm NW 6.0 7.0----30.14- 78.8 71.6 74.7---
2024-06-21 01:42 pm NW 6.0 6.0----30.14- 78.4 71.1 74.8---
2024-06-21 01:36 pm NW 6.0 7.0----30.15- 78.4 71.6 74.5---
2024-06-21 01:30 pm NW 5.1 6.0----30.15- 79.0 72.0 75.2---
2024-06-21 01:24 pmWNW 5.1 5.1----30.15- 77.9 71.1 73.9---
2024-06-21 01:18 pmWNW 5.1 5.1----30.15- 77.9 72.5 74.3---
2024-06-21 01:12 pm NW 5.1 5.1----30.15- 78.1 71.2 74.3---
2024-06-21 01:06 pmWNW 5.1 5.1----30.16- 77.9 72.3 74.3---
2024-06-21 01:00 pmWNW 4.1 5.1----30.16-0.01 77.0 72.3 74.3---
2024-06-21 12:54 pmWNW 5.1 5.1----30.16- 78.6 72.3 74.8---
2024-06-21 12:48 pmWNW 2.9 4.1----30.16- 78.1 73.6 74.3---
2024-06-21 12:42 pm NW 2.9 4.1----30.16- 77.7 72.5 74.7---
2024-06-21 12:36 pm NW 2.9 4.1----30.16- 77.7 72.1 74.5---
2024-06-21 12:30 pm NW 2.9 2.9----30.16- 78.1 71.8 75.0---
2024-06-21 12:24 pm NW 2.9 2.9----30.16- 78.1 71.4 74.1---
2024-06-21 12:18 pmNNW 2.9 2.9----30.16- 77.4 72.3 74.5---
2024-06-21 12:12 pmNNW 1.9 2.9----30.16- 76.3 72.3 74.5---
2024-06-21 12:06 pm N 2.9 5.1----30.16- 76.3 73.2 74.3---
2024-06-21 12:00 pmNNW 5.1 6.0----30.16+0.00 77.0 73.4 74.7---
2024-06-21 11:54 amNNW 6.0 7.0----30.16- 77.5 73.0 74.8---
2024-06-21 11:48 amNNW 6.0 8.0----30.16- 77.5 73.4 74.5---
2024-06-21 11:42 am NW 6.0 7.0----30.16- 78.6 73.2 75.0---
2024-06-21 11:36 am NW 6.0 7.0----30.16- 78.1 73.0 74.8---
2024-06-21 11:30 am NW 7.0 7.0----30.16- 77.9 72.1 74.7---
2024-06-21 11:24 amWNW 6.0 7.0----30.16- 78.6 72.7 74.5---
2024-06-21 11:18 am W 4.1 5.1----30.16- 78.6 73.0 74.5---
2024-06-21 11:12 am W 5.1 5.1----30.16- 78.8 73.6 74.5---
2024-06-21 11:06 amWNW 5.1 5.1----30.16- 77.9 71.4 73.8---
2024-06-21 11:00 amWNW 5.1 5.1----30.16+0.00 78.3 73.0 74.3---
2024-06-21 10:54 amWNW 5.1 5.1----30.16- 78.6 73.2 73.9---
2024-06-21 10:48 am W 5.1 5.1----30.16- 79.0 72.5 74.3---
2024-06-21 10:42 am W 4.1 4.1----30.16- 79.5 72.5 74.1---
2024-06-21 10:36 am W 4.1 4.1----30.16- 78.6 72.3 73.9---
2024-06-21 10:30 amWNW 2.9 2.9----30.16- 79.2 72.5 74.5---
2024-06-21 10:24 am W 2.9 2.9----30.16- 78.6 73.4 73.6---
2024-06-21 10:18 am W 1.9 2.9----30.16- 78.4 73.2 73.2---
2024-06-21 10:12 am NW 1.9 2.9----30.16- 78.6 73.9 73.6---
2024-06-21 10:06 am NW 1.9 2.9----30.16- 78.4 74.3 73.6---
2024-06-21 10:00 am NW 2.9 4.1----30.17+0.02 77.5 71.6 72.5---
2024-06-21 09:54 amWNW 4.1 4.1----30.17- 78.4 72.5 72.9---
2024-06-21 09:48 am NW 4.1 5.1----30.17- 78.6 72.3 73.0---
2024-06-21 09:42 am NW 5.1 7.0----30.17- 78.8 71.6 72.5---
2024-06-21 09:36 amWNW 7.0 8.0----30.17- 78.1 74.1 72.9---
2024-06-21 09:30 amWNW 8.0 8.0----30.17- 77.7 71.2 72.1---
2024-06-21 09:24 amWNW 6.0 7.0----30.16- 77.9 71.2 72.0---
2024-06-21 09:18 am W 6.0 8.0----30.16- 77.9 71.6 71.6---
2024-06-21 09:12 am W 7.0 8.0----30.16- 78.4 71.6 72.0---
2024-06-21 09:06 am W 6.0 6.0----30.16- 78.8 71.8 71.8---
2024-06-21 09:00 am W 5.1 5.1----30.16+0.01 79.7 72.0 71.8---
2024-06-21 08:54 amWSW 4.1 5.1----30.16- 80.8 72.7 71.6---
2024-06-21 08:48 am SW 4.1 4.1----30.16- 80.8 73.4 72.1---
2024-06-21 08:42 am SW 2.9 4.1----30.16- 80.4 72.5 72.3---
2024-06-21 08:36 amSSW 2.9 4.1----30.16- 79.2 72.7 72.5---
2024-06-21 08:30 amSSW 2.9 2.9----30.16- 78.6 73.0 72.9---
2024-06-21 08:24 am W 1.9 2.9----30.16- 77.7 72.7 72.5---
2024-06-21 08:18 amWSW 2.9 4.1----30.16- 77.2 71.6 72.7---
2024-06-21 08:12 am W 2.9 2.9----30.16- 76.8 71.4 72.3---
2024-06-21 08:06 amWSW 1.9 2.9----30.16- 75.9 72.0 71.8---
2024-06-21 08:00 amWNW 2.9 4.1----30.16+0.02- 73.2----
2024-06-21 07:54 amWNW 2.9 2.9----30.16- 77.5 73.4 72.0---
2024-06-21 07:48 am W 2.9 4.1----30.16- 77.7 70.9 72.1---
2024-06-21 07:42 amWSW 2.9 4.1----30.16- 77.0 74.3 71.6---
2024-06-21 07:36 amWSW 2.9 4.1----30.16- 76.3 73.6 70.3---
2024-06-21 07:30 amSSW 4.1 5.1----30.16- 75.9 72.0 71.8---
2024-06-21 07:24 am SW 4.1 5.1----30.16- 74.8 71.2 71.1---
2024-06-21 07:18 amWSW 2.9 4.1----30.15- 75.0 73.2 71.4---
2024-06-21 07:12 amWNW 4.1 4.1----30.15- 74.3 71.6 70.7---
2024-06-21 07:06 amWSW 4.1 4.1----30.15- 74.3 74.3 70.9---
2024-06-21 07:00 amWSW 1.9 4.1----30.15+0.00 74.1- 71.4---
2024-06-21 06:54 am S 4.1 5.1----30.15- 73.8- 71.6---
2024-06-21 06:48 am S 4.1 4.1----30.15- 73.4 78.6 71.6---
2024-06-21 06:42 am S 1.9 2.9----30.15- 73.4 73.8 71.6---
2024-06-21 06:36 am S 2.9 5.1----30.15- 73.0 74.7 71.2---
2024-06-21 06:30 amSSE 5.1 5.1----30.15- 73.2 71.6 71.8---
2024-06-21 06:24 am SE 4.1 4.1----30.15- 73.2 72.5 71.8---
2024-06-21 06:18 amSSE 2.9 4.1----30.15- 72.9 75.0 71.4---
2024-06-21 06:12 am SE 1.9 2.9----30.15- 72.3 74.3 70.9---
2024-06-21 06:06 am SE 1.9 2.9----30.15- 72.1 73.9 70.7---
2024-06-21 06:00 am- 0.0 1.9----30.15-0.02 72.3 71.8 70.7---
2024-06-21 05:54 am- 0.0 1.0----30.15- 72.5 72.1 70.9---
2024-06-21 05:48 am- 0.0 0.0----30.14- 72.5 71.2 70.7---
2024-06-21 05:42 am- 0.0 1.0----30.14- 72.7 71.2 70.7---
2024-06-21 05:36 am SE 1.0 1.9----30.14- 73.0 71.2 71.1---
2024-06-21 05:30 amESE 1.0 1.9----30.14- 73.0 71.1 71.2---
2024-06-21 05:24 am SE 1.9 2.9----30.14- 73.2 74.1 71.2---
2024-06-21 05:18 amESE 2.9 4.1----30.14- 73.0 73.0 71.8---
2024-06-21 05:12 amESE 1.9 4.1----30.14- 73.8 76.6 72.9---
2024-06-21 05:06 am E 4.1 5.1----30.14- 73.2 76.5 73.0---
2024-06-21 05:00 am E 4.1 5.1----30.14-0.03 73.2 75.4 73.2---
2024-06-21 04:54 am E 5.1 6.0----30.14- 73.4 74.1 73.4---
2024-06-21 04:48 am E 4.1 5.1----30.14- 73.8 73.0 73.8---
2024-06-21 04:42 am NE 4.1 5.1----30.14- 73.6 74.1 73.6---
2024-06-21 04:36 am E 4.1 5.1----30.14- 73.6 77.4 73.6---
2024-06-21 04:30 amENE 5.1 6.0----30.14- 73.9 77.5 73.9---
2024-06-21 04:24 amENE 5.1 5.1----30.14- 73.8 73.2 73.8---
2024-06-21 04:18 am E 5.1 6.0----30.14- 73.8 72.5 73.8---
2024-06-21 04:12 amENE 4.1 6.0----30.15- 73.8 72.0 73.8---
2024-06-21 04:06 am E 5.1 6.0----30.15- 73.8 72.5 73.8---
2024-06-21 04:00 amENE 5.1 6.0----30.15-0.04 73.8 72.9 73.8---
2024-06-21 03:54 am E 4.1 5.1----30.15- 73.4 74.8 73.4---
2024-06-21 03:48 amENE 5.1 5.1----30.15- 73.4 73.0 73.4---
2024-06-21 03:42 am E 4.1 5.1----30.15- 73.6 73.9 73.6---
2024-06-21 03:36 amENE 5.1 5.1----30.15- 73.9 73.8 73.9---
2024-06-21 03:30 am E 4.1 5.1----30.16- 73.9 73.0 73.9---
2024-06-21 03:24 amENE 4.1 5.1----30.16- 73.9 73.4 73.9---
2024-06-21 03:18 am NE 4.1 5.1----30.16- 74.3 76.1 74.3---
2024-06-21 03:12 amNNE 5.1 7.0----30.16- 74.5 74.5 74.5---
2024-06-21 03:06 amNNE 6.0 7.0----30.16- 74.8 73.9 74.8---
2024-06-21 03:00 amNNE 6.0 7.0----30.16-0.02 74.8 74.5 73.9---
2024-06-21 02:54 am N 5.1 6.0----30.16- 74.5 72.7 71.6---
2024-06-21 02:48 am NE 2.9 4.1----30.16- 74.8 75.7 72.0---
2024-06-21 02:42 am NE 2.9 4.1----30.16- 74.5 73.2 70.9---
2024-06-21 02:36 amENE 2.9 2.9----30.16- 74.7 72.5 71.4---
2024-06-21 02:30 amENE 1.9 2.9----30.16- 74.3 73.0 70.9---
2024-06-21 02:24 am E 1.9 2.9----30.16- 74.1 74.1 71.2---
2024-06-21 02:18 amNNE 4.1 5.1----30.17- 74.5 73.8 71.1---
2024-06-21 02:12 amENE 4.1 4.1----30.16- 74.5 73.2 70.9---
2024-06-21 02:06 am NE 5.1 5.1----30.17- 74.3 73.2 70.9---
2024-06-21 02:00 am NE 5.1 6.0----30.17-0.02 75.2 75.0 71.6---
2024-06-21 01:54 amENE 2.9 4.1----30.17- 75.0 72.5 70.9---
2024-06-21 01:48 am E 4.1 5.1----30.17- 74.8 74.5 70.9---
2024-06-21 01:42 am E 4.1 5.1----30.17- 74.5 74.8 70.5---
2024-06-21 01:36 am E 5.1 5.1----30.18- 74.5 75.4 71.1---
2024-06-21 01:30 am E 5.1 5.1----30.18- 74.7 75.6 72.3---
2024-06-21 01:24 am E 4.1 5.1----30.18- 75.0 73.6 72.3---
2024-06-21 01:18 amENE 4.1 4.1----30.18- 75.2 75.7 71.8---
2024-06-21 01:12 amENE 4.1 4.1----30.18- 75.2 76.5 71.8---
2024-06-21 01:06 am E 2.9 4.1----30.18- 75.2 76.3 71.4---
2024-06-21 01:00 am E 2.9 4.1----30.18-0.01 75.4 77.5 71.2---
2024-06-21 12:54 am-------30.19- 75.6 76.5 71.2---
2024-06-21 12:48 am-------30.19- 75.6 77.0 70.7---
2024-06-21 12:42 am E 2.9 4.1----30.19- 75.6 74.7 70.7---
2024-06-21 12:36 amESE 4.1 4.1----30.19- 75.6 75.4 70.5---
2024-06-21 12:30 am E 4.1 4.1----30.19- 75.4 74.7 70.2---
2024-06-21 12:24 am E 4.1 5.1----30.19- 75.2 74.5 71.4---
2024-06-21 12:18 am E 4.1 5.1----30.19- 75.2 74.8 72.3---
2024-06-21 12:12 am E 4.1 5.1----30.19- 75.4 74.8 71.6---
2024-06-21 12:06 am E 5.1 5.1----30.19- 75.2 75.6 71.4---
2024-06-21 12:00 am E 5.1 6.0----30.19+0.02 75.2 77.2 72.5---
2024-06-20 11:54 pm E 6.0 6.0----30.19- 75.4 77.5 72.5---
2024-06-20 11:48 pmENE 6.0 6.0----30.19- 75.4 77.0 72.7---
2024-06-20 11:42 pmENE 7.0 8.0----30.19- 75.0 76.6 72.1---
2024-06-20 11:36 pmENE 5.1 7.0----30.19- 75.2 77.4 73.2---
2024-06-20 11:30 pm E 5.1 6.0----30.19- 75.9 77.7 73.4---
2024-06-20 11:24 pm E 6.0 8.0----30.19- 75.4 77.0 72.3---
2024-06-20 11:18 pm E 6.0 8.0----30.19- 75.4 77.7 73.6---
2024-06-20 11:12 pm E 8.0 8.9----30.19- 75.2 77.2 73.8---
2024-06-20 11:06 pmENE 8.9 9.9----30.19- 75.4 78.3 74.1---
2024-06-20 11:00 pmENE 11.1 12.0----30.19+0.02 75.4 78.3 74.7---
2024-06-20 10:54 pm-------30.19- 75.6 78.3 74.5---
2024-06-20 10:48 pmENE 12.0 13.0----30.19- 76.1 78.1 74.7---
2024-06-20 10:42 pmENE 13.0 14.0----30.19- 75.7 77.9 75.0---
2024-06-20 10:36 pmENE 14.0 15.0----30.19- 76.1 78.1 75.6---
2024-06-20 10:30 pm NE 12.0 14.0----30.20- 75.9 78.1 75.4---
2024-06-20 10:24 pm-------30.19- 75.9 78.3 75.0---
2024-06-20 10:18 pm NE 13.0 14.0----30.20- 76.3 78.3 75.0---
2024-06-20 10:12 pm NE 11.1 13.0----30.20- 76.5 78.3 74.7---
2024-06-20 10:06 pm NE 12.0 13.0----30.20- 76.8 77.7 74.3---
2024-06-20 10:00 pmNNE 9.9 13.0----30.19+0.03 76.8 78.3 74.3---
2024-06-20 09:54 pm NE 12.0 14.0----30.19- 77.4 77.4 73.6---
2024-06-20 09:48 pm-------30.19- 77.0 78.1 73.6---
2024-06-20 09:42 pm-------30.18- 76.8 78.4 73.8---
2024-06-20 09:36 pm-------30.18- 77.0 78.4 72.9---
2024-06-20 09:30 pm-------30.17- 77.7 78.4 72.1---
2024-06-20 09:24 pm-------30.17- 77.5 77.2 72.9---
2024-06-20 09:18 pm-------30.17- 77.7 78.3 73.2---
2024-06-20 09:12 pm-------30.17- 77.4 78.6 73.8---
2024-06-20 09:06 pmENE 9.9 11.1----30.17- 77.2 78.6 74.1---
2024-06-20 09:00 pmENE 8.9 8.9----30.17-0.01 77.5 78.3 74.5---
2024-06-20 08:54 pm E 8.9 8.9----30.16- 77.7 78.1 73.9---
2024-06-20 08:48 pm E 8.0 8.0----30.16- 77.7 77.4 73.8---
2024-06-20 08:42 pmENE 8.0 8.0----30.16- 77.7 77.9 74.3---
2024-06-20 08:36 pmENE 7.0 8.0----30.16- 77.9 77.5 73.9---
2024-06-20 08:30 pmENE 7.0 7.0----30.17- 77.9 77.7 73.8---
2024-06-20 08:24 pmENE 6.0 7.0----30.17- 78.1 77.7 73.8---
2024-06-20 08:18 pmENE 8.0 8.0----30.17- 77.9 77.9 73.9---
2024-06-20 08:12 pmENE 8.0 9.9----30.17- 78.3 78.8 74.7---
2024-06-20 08:06 pmENE 9.9 11.1----30.17- 78.4 78.6 73.8---
2024-06-20 08:00 pmENE 11.1 11.1----30.17-0.02 78.8 78.4 73.9---
2024-06-20 07:54 pmENE 11.1 12.0----30.16- 79.0 78.1 73.0---
2024-06-20 07:48 pmENE 12.0 13.0----30.16- 79.3 78.1 72.1---
2024-06-20 07:42 pm E 12.0 12.0----30.16- 79.3 79.0 72.5---
2024-06-20 07:36 pmENE 12.0 12.0----30.16- 79.3 79.3 73.0---
2024-06-20 07:30 pmENE 12.0 12.0----30.16- 79.0 79.3 73.8---
2024-06-20 07:24 pm-------30.16- 78.8 79.0 74.3---
2024-06-20 07:18 pm-------30.16- 78.6 77.7 74.8---
2024-06-20 07:12 pm-------30.16- 79.0 76.8 74.8---
2024-06-20 07:06 pm-------30.17- 79.2 77.4 74.1---
2024-06-20 07:00 pm-------30.17-0.04 79.0 77.2 74.5---
2024-06-20 06:54 pm-------30.17- 79.0 76.8 75.0---